When you browse on this site, cookies collect data to enhance your experience and personalize the content and advertising you see.
Visit our Privacy Policy to learn more. By continuing to use the site, you agree to this use of cookies and data.
  • In Romania
  • List of Countries
  • For 7 days
  • Water Temperature
  • Satellite Maps
  • Weather Map
  • Weather Widgets
  • user-avatar
    Login

    Hourly Weather Lomme

    Today, 20 April, Saturday

    Time Temperature Precipitation Wind Pressure Humidity
    00:00 +15°C° 0 mm 2 mps 769 mmHg 60%
    01:00 +15°C° 0 mm 2 mps 769 mmHg 62%
    02:00 +14°C° 0 mm 2 mps 769 mmHg 65%
    03:00 +14°C° 0 mm 2 mps 769 mmHg 68%
    04:00 +14°C° 0 mm 2 mps 769 mmHg 69%
    05:00 +14°C° 0 mm 2 mps 769 mmHg 70%
    06:00 +14°C° 0 mm 1 mps 769 mmHg 70%
    07:00 +16°C° 0 mm 2 mps 769 mmHg 64%
    08:00 +18°C° 0 mm 2 mps 769 mmHg 58%
    09:00 +19°C° 0 mm 2 mps 769 mmHg 52%
    10:00 +21°C° 0 mm 3 mps 769 mmHg 47%
    11:00 +24°C° 0 mm 3 mps 769 mmHg 42%
    12:00 +25°C° 0 mm 3 mps 769 mmHg 37%
    13:00 +25°C° 0 mm 3 mps 769 mmHg 38%
    14:00 +25°C° 0 mm 3 mps 768 mmHg 38%
    15:00 +25°C° 0 mm 3 mps 768 mmHg 38%
    16:00 +24°C° 0 mm 3 mps 768 mmHg 44%
    17:00 +22°C° 0 mm 3 mps 767 mmHg 49%
    18:00 +20°C° 0 mm 3 mps 767 mmHg 54%
    19:00 +19°C° 0 mm 3 mps 767 mmHg 55%
    20:00 +17°C° 0 mm 3 mps 768 mmHg 56%
    21:00 +16°C° 0 mm 3 mps 768 mmHg 57%
    22:00 +14°C° 0 mm 3 mps 768 mmHg 60%
    23:00 +14°C° 0 mm 3 mps 767 mmHg 62%

    Tomorrow, 21 April, Sunday

    Time Temperature Precipitation Wind Pressure Humidity
    00:00 +13°C° 0 mm 3 mps 767 mmHg 65%
    01:00 +14°C° 0 mm 2 mps 767 mmHg 66%
    02:00 +13°C° 0 mm 2 mps 766 mmHg 67%
    03:00 +13°C° 0 mm 2 mps 766 mmHg 69%
    04:00 +13°C° 0 mm 2 mps 765 mmHg 70%
    05:00 +12°C° 0 mm 2 mps 765 mmHg 71%
    06:00 +12°C° 0 mm 2 mps 765 mmHg 73%
    07:00 +14°C° 0 mm 2 mps 765 mmHg 68%
    08:00 +16°C° 0 mm 2 mps 764 mmHg 64%
    09:00 +18°C° 0 mm 2 mps 764 mmHg 59%
    10:00 +20°C° 0 mm 2 mps 764 mmHg 56%
    11:00 +21°C° 0 mm 2 mps 763 mmHg 52%
    12:00 +24°C° 0 mm 2 mps 763 mmHg 48%
    13:00 +24°C° 0 mm 2 mps 762 mmHg 47%
    14:00 +24°C° 0 mm 2 mps 762 mmHg 45%
    15:00 +25°C° 0 mm 2 mps 761 mmHg 43%
    16:00 +24°C° 0 mm 2 mps 761 mmHg 48%
    17:00 +21°C° 0 mm 2 mps 760 mmHg 53%
    18:00 +20°C° 0 mm 2 mps 760 mmHg 58%
    19:00 +19°C° 0 mm 2 mps 760 mmHg 60%
    20:00 +17°C° 0 mm 2 mps 760 mmHg 63%
    21:00 +16°C° 0 mm 2 mps 760 mmHg 65%
    22:00 +16°C° 0 mm 2 mps 760 mmHg 66%
    23:00 +15°C° 0 mm 2 mps 759 mmHg 66%

    Day after tomorrow, 22 April, Monday

    Time Temperature Precipitation Wind Pressure Humidity
    00:00 +15°C° 0 mm 2 mps 759 mmHg 66%
    01:00 +14°C° 0 mm 2 mps 758 mmHg 68%
    02:00 +14°C° 0 mm 2 mps 757 mmHg 70%
    03:00 +13°C° 0 mm 2 mps 757 mmHg 72%
    04:00 +13°C° 0 mm 2 mps 756 mmHg 71%
    05:00 +13°C° 0 mm 2 mps 756 mmHg 70%
    06:00 +13°C° 0 mm 2 mps 755 mmHg 69%
    07:00 +15°C° 0 mm 2 mps 755 mmHg 64%
    08:00 +17°C° 0 mm 3 mps 755 mmHg 59%
    09:00 +19°C° 0 mm 3 mps 754 mmHg 54%
    10:00 +20°C° 0 mm 3 mps 754 mmHg 49%
    11:00 +21°C° 0 mm 4 mps 753 mmHg 45%
    12:00 +23°C° 0 mm 4 mps 753 mmHg 41%
    13:00 +23°C° 0 mm 4 mps 752 mmHg 41%
    14:00 +23°C° 0 mm 4 mps 752 mmHg 42%
    15:00 +25°C° 0 mm 4 mps 751 mmHg 42%
    16:00 +23°C° 0 mm 4 mps 751 mmHg 47%
    17:00 +22°C° 0 mm 3 mps 750 mmHg 52%
    18:00 +21°C° 0 mm 3 mps 750 mmHg 57%
    19:00 +20°C° 0 mm 3 mps 750 mmHg 58%
    20:00 +19°C° 0 mm 3 mps 750 mmHg 60%
    21:00 +17°C° 0 mm 3 mps 750 mmHg 62%
    22:00 +17°C° 0 mm 3 mps 750 mmHg 62%
    23:00 +16°C° 0 mm 3 mps 749 mmHg 62%

    23 April, Tuesday

    Time Temperature Precipitation Wind Pressure Humidity
    00:00 +14°C° 0 mm 3 mps 749 mmHg 63%
    01:00 +14°C° 0 mm 3 mps 749 mmHg 64%
    02:00 +13°C° 0 mm 3 mps 748 mmHg 65%
    03:00 +13°C° 0 mm 3 mps 748 mmHg 66%
    04:00 +12°C° 0 mm 3 mps 748 mmHg 68%
    05:00 +12°C° 0 mm 3 mps 748 mmHg 69%
    06:00 +12°C° 0 mm 3 mps 748 mmHg 71%
    07:00 +13°C° 0 mm 4 mps 748 mmHg 67%
    08:00 +14°C° 0 mm 4 mps 748 mmHg 64%
    09:00 +17°C° 0 mm 4 mps 748 mmHg 60%
    10:00 +18°C° 0 mm 4 mps 747 mmHg 57%
    11:00 +19°C° 0 mm 4 mps 747 mmHg 54%
    12:00 +20°C° 0 mm 4 mps 747 mmHg 51%
    13:00 +21°C° 0 mm 4 mps 746 mmHg 51%
    14:00 +21°C° 0 mm 3 mps 746 mmHg 51%
    15:00 +21°C° 0 mm 3 mps 746 mmHg 50%
    16:00 +21°C° 0 mm 3 mps 745 mmHg 54%
    17:00 +20°C° 0 mm 3 mps 745 mmHg 59%
    18:00 +19°C° 0 mm 2 mps 745 mmHg 63%
    19:00 +18°C° 0 mm 2 mps 745 mmHg 66%
    20:00 +17°C° 0 mm 3 mps 745 mmHg 69%
    21:00 +16°C° 0 mm 3 mps 745 mmHg 72%
    22:00 +15°C° 0 mm 2 mps 745 mmHg 75%
    23:00 +15°C° 0 mm 2 mps 745 mmHg 78%

    24 April, Wednesday

    Time Temperature Precipitation Wind Pressure Humidity
    00:00 +14°C° 0 mm 2 mps 745 mmHg 81%
    01:00 +14°C° 0 mm 2 mps 745 mmHg 83%
    02:00 +14°C° 0 mm 2 mps 745 mmHg 85%
    03:00 +14°C° 0 mm 2 mps 745 mmHg 88%
    04:00 +14°C° 0 mm 2 mps 745 mmHg 88%
    05:00 +15°C° 0 mm 2 mps 745 mmHg 88%
    06:00 +14°C° 0 mm 3 mps 745 mmHg 88%
    07:00 +15°C° 0.2 mm 4 mps 745 mmHg 83%
    08:00 +17°C° 0.2 mm 6 mps 746 mmHg 78%
    09:00 +18°C° 0.2 mm 7 mps 746 mmHg 73%
    10:00 +17°C° 0.3 mm 7 mps 746 mmHg 72%
    11:00 +17°C° 0.3 mm 6 mps 747 mmHg 71%
    12:00 +16°C° 0.3 mm 6 mps 747 mmHg 70%
    13:00 +16°C° 0.1 mm 5 mps 747 mmHg 68%
    14:00 +17°C° 0.1 mm 5 mps 747 mmHg 66%
    15:00 +18°C° 0.1 mm 4 mps 748 mmHg 64%
    16:00 +15°C° 0.3 mm 4 mps 748 mmHg 67%
    17:00 +14°C° 0.3 mm 4 mps 748 mmHg 70%
    18:00 +13°C° 0.3 mm 4 mps 749 mmHg 73%
    19:00 +12°C° 0.1 mm 4 mps 749 mmHg 75%
    20:00 +12°C° 0.1 mm 4 mps 750 mmHg 77%
    21:00 +10°C° 0.1 mm 5 mps 751 mmHg 78%
    22:00 +9°C° 0 mm 5 mps 750 mmHg 79%
    23:00 +9°C° 0 mm 5 mps 750 mmHg 80%

    25 April, Thursday

    Time Temperature Precipitation Wind Pressure Humidity
    00:00 +9°C° 0 mm 6 mps 750 mmHg 81%
    01:00 +9°C° 0 mm 6 mps 749 mmHg 80%
    02:00 +9°C° 0 mm 6 mps 749 mmHg 78%
    03:00 +10°C° 0 mm 6 mps 749 mmHg 76%
    04:00 +10°C° 0.1 mm 6 mps 750 mmHg 78%
    05:00 +10°C° 0.1 mm 6 mps 750 mmHg 79%
    06:00 +10°C° 0.1 mm 6 mps 750 mmHg 81%
    07:00 +11°C° 0 mm 7 mps 751 mmHg 75%
    08:00 +12°C° 0 mm 7 mps 751 mmHg 70%
    09:00 +13°C° 0 mm 8 mps 751 mmHg 64%
    10:00 +13°C° 0.1 mm 8 mps 751 mmHg 64%
    11:00 +13°C° 0.1 mm 8 mps 752 mmHg 63%
    12:00 +13°C° 0.1 mm 8 mps 752 mmHg 63%
    13:00 +13°C° 0.4 mm 8 mps 752 mmHg 63%
    14:00 +13°C° 0.4 mm 8 mps 752 mmHg 63%
    15:00 +14°C° 0.4 mm 7 mps 752 mmHg 64%
    16:00 +13°C° 0.2 mm 6 mps 752 mmHg 66%
    17:00 +13°C° 0.2 mm 5 mps 752 mmHg 69%
    18:00 +12°C° 0.2 mm 4 mps 753 mmHg 72%
    19:00 +11°C° 0 mm 4 mps 753 mmHg 74%
    20:00 +10°C° 0 mm 4 mps 753 mmHg 76%
    21:00 +10°C° 0 mm 4 mps 754 mmHg 78%
    22:00 +8°C° 0 mm 5 mps 754 mmHg 78%
    23:00 +8°C° 0 mm 5 mps 754 mmHg 78%
    Show more